Location: C�an Torras
(41.5052°N, 1.9280°E)
Time: 02:06:18
(UTC+00:00)

ISS - Pass Details

Date: 20 January 2021
Orbit: 417 x 422 km, 51.6° (Epoch: 08 March)

Event Time Altitude Azimuth Distance (km) Brightness Sun altitude
Rises 19:14:53 0° 261° (W) 2,366 1.4 -26.2°
Reaches altitude 10° 19:17:09 10° 273° (W) 1,505 0.0 -26.6°
Enters shadow 19:18:49 22° 296° (WNW) 982 -1.3 -27.0°
